RYR9RC LGKR-LIME

Flight info

Callsign RYR9RC
Flight time 1h 38m
Altitude 38000
Route OLGAT DCT OKIMO DCT ENOXA DCT GARGA DCT ANC DCT BOA DCT OGPUD DCT BETMU DCT OSBUL
Aircraft B738/M-SDE2E3FGHIRWXY/LB1

Departure

Time 2026-04-29 14:58
Airport Corfu Ioannis Kapodistrias International Airport (LGKR)

Arrival

Time 2026-04-29 16:36
Airport Il Caravaggio International Airport (LIME)
Time Latitude Longitude Altitude Speed Heading
2026-04-29 14:36 39.60591 19.91375 18 ft 0 kts 78°
2026-04-29 14:50 39.60590 19.91371 17 ft 3 kts 78°
2026-04-29 14:51 39.60585 19.91337 19 ft 4 kts 78°
2026-04-29 14:51 39.60579 19.91304 21 ft 4 kts 78°
2026-04-29 14:51 39.60578 19.91295 21 ft 0 kts 78°
2026-04-29 14:54 39.60579 19.91299 17 ft 4 kts 78°
2026-04-29 14:54 39.60592 19.91300 19 ft 3 kts 312°
2026-04-29 14:54 39.60597 19.91237 17 ft 11 kts 252°
2026-04-29 14:54 39.60532 19.91154 19 ft 17 kts 208°
2026-04-29 14:55 39.60386 19.91164 20 ft 27 kts 168°
2026-04-29 14:55 39.60168 19.91221 21 ft 35 kts 169°
2026-04-29 14:55 39.59930 19.91282 21 ft 34 kts 167°
2026-04-29 14:55 39.59708 19.91339 19 ft 32 kts 170°
2026-04-29 14:56 39.59497 19.91394 17 ft 30 kts 169°
2026-04-29 14:56 39.59307 19.91443 16 ft 20 kts 169°
2026-04-29 14:56 39.59195 19.91501 16 ft 15 kts 140°
2026-04-29 14:56 39.59157 19.91458 19 ft 12 kts 321°
2026-04-29 14:57 39.59237 19.91461 17 ft 12 kts 352°
2026-04-29 14:57 39.59327 19.91440 16 ft 21 kts 348°
2026-04-29 14:57 39.59776 19.91321 23 ft 110 kts 349°
2026-04-29 14:57 39.60787 19.91079 102 ft 178 kts 349°
2026-04-29 14:58 39.62050 19.90833 1021 ft 186 kts 350°
2026-04-29 14:58 39.63316 19.90551 2236 ft 184 kts 348°
2026-04-29 14:58 39.64521 19.90076 3380 ft 178 kts 326°
2026-04-29 14:58 39.65416 19.88935 4134 ft 192 kts 301°
2026-04-29 14:59 39.65856 19.87236 4460 ft 212 kts 272°
2026-04-29 14:59 39.65838 19.85290 5063 ft 219 kts 269°
2026-04-29 14:59 39.65812 19.83303 5793 ft 221 kts 269°
2026-04-29 14:59 39.65781 19.81287 6581 ft 225 kts 269°
2026-04-29 15:00 39.66001 19.79302 7409 ft 226 kts 296°
2026-04-29 15:00 39.66972 19.77589 7843 ft 251 kts 312°
2026-04-29 15:00 39.68240 19.75875 8242 ft 272 kts 314°
2026-04-29 15:00 39.69586 19.74102 9082 ft 278 kts 314°
2026-04-29 15:01 39.70949 19.72305 9988 ft 281 kts 314°
2026-04-29 15:01 39.72336 19.70466 10606 ft 295 kts 313°
2026-04-29 15:01 39.73832 19.68467 10795 ft 322 kts 313°
2026-04-29 15:01 39.75448 19.66296 11022 ft 345 kts 313°
2026-04-29 15:02 39.77145 19.64010 11586 ft 355 kts 313°
2026-04-29 15:02 39.78866 19.61683 12364 ft 359 kts 313°
2026-04-29 15:02 39.80601 19.59335 13191 ft 361 kts 313°
2026-04-29 15:02 39.82350 19.56966 13946 ft 365 kts 313°
2026-04-29 15:03 39.84116 19.54575 14620 ft 369 kts 313°
2026-04-29 15:03 39.85902 19.52158 15332 ft 371 kts 313°
2026-04-29 15:03 39.87707 19.49736 16038 ft 374 kts 313°
2026-04-29 15:03 39.89529 19.47300 16734 ft 377 kts 313°
2026-04-29 15:04 39.91368 19.44839 17432 ft 380 kts 313°
2026-04-29 15:04 39.93216 19.42362 18115 ft 383 kts 313°
2026-04-29 15:04 39.95082 19.39856 18722 ft 387 kts 313°
2026-04-29 15:04 39.96962 19.37327 19294 ft 390 kts 313°
2026-04-29 15:05 39.98853 19.34779 19865 ft 393 kts 313°
2026-04-29 15:05 40.00759 19.32208 20426 ft 396 kts 313°
2026-04-29 15:05 40.02680 19.29614 20988 ft 399 kts 313°
2026-04-29 15:05 40.04589 19.27034 21526 ft 402 kts 313°
2026-04-29 15:06 40.06538 19.24398 22050 ft 405 kts 313°
2026-04-29 15:06 40.08498 19.21743 22568 ft 408 kts 313°
2026-04-29 15:06 40.10473 19.19066 23077 ft 411 kts 313°
2026-04-29 15:06 40.12463 19.16367 23575 ft 414 kts 313°
2026-04-29 15:07 40.14467 19.13646 23998 ft 417 kts 313°
2026-04-29 15:07 40.16481 19.10907 24420 ft 419 kts 313°
2026-04-29 15:07 40.18504 19.08152 24859 ft 421 kts 312°
2026-04-29 15:07 40.20533 19.05387 25306 ft 422 kts 312°
2026-04-29 15:08 40.22572 19.02608 25717 ft 424 kts 312°
2026-04-29 15:08 40.24624 18.99812 26084 ft 427 kts 312°
2026-04-29 15:08 40.26690 18.96999 26453 ft 429 kts 313°
2026-04-29 15:08 40.28769 18.94175 26832 ft 431 kts 313°
2026-04-29 15:09 40.30857 18.91338 27207 ft 434 kts 313°
2026-04-29 15:09 40.32953 18.88484 27567 ft 436 kts 313°
2026-04-29 15:09 40.35057 18.85615 27909 ft 438 kts 312°
2026-04-29 15:09 40.37173 18.82724 28253 ft 440 kts 312°
2026-04-29 15:10 40.39292 18.79824 28587 ft 442 kts 312°
2026-04-29 15:10 40.41424 18.76900 28902 ft 445 kts 312°
2026-04-29 15:10 40.43573 18.73951 29139 ft 448 kts 312°
2026-04-29 15:10 40.45728 18.70991 29579 ft 447 kts 312°
2026-04-29 15:11 40.47867 18.68051 30103 ft 444 kts 312°
2026-04-29 15:11 40.49996 18.65122 30548 ft 442 kts 312°
2026-04-29 15:11 40.52114 18.62206 30960 ft 440 kts 312°
2026-04-29 15:11 40.54225 18.59296 31336 ft 439 kts 312°
2026-04-29 15:12 40.56303 18.56428 31682 ft 439 kts 312°
2026-04-29 15:12 40.57721 18.54470 31924 ft 438 kts 312°
2026-04-29 15:12 40.60526 18.50591 32413 ft 437 kts 312°
2026-04-29 15:12 40.62590 18.47735 32788 ft 436 kts 312°
2026-04-29 15:13 40.64675 18.44846 33136 ft 435 kts 312°
2026-04-29 15:13 40.66757 18.41959 33475 ft 434 kts 312°
2026-04-29 15:13 40.68838 18.39070 33800 ft 434 kts 312°
2026-04-29 15:13 40.70909 18.36191 34145 ft 433 kts 312°
2026-04-29 15:14 40.72975 18.33318 34532 ft 430 kts 312°
2026-04-29 15:14 40.75024 18.30465 34888 ft 427 kts 311°
2026-04-29 15:14 40.77065 18.27621 35191 ft 426 kts 311°
2026-04-29 15:14 40.79102 18.24778 35468 ft 426 kts 311°
2026-04-29 15:15 40.81138 18.21934 35685 ft 426 kts 311°
2026-04-29 15:15 40.83173 18.19089 35944 ft 426 kts 311°
2026-04-29 15:15 40.85205 18.16245 36226 ft 425 kts 311°
2026-04-29 15:15 40.87229 18.13408 36510 ft 424 kts 311°
2026-04-29 15:16 40.89245 18.10580 36773 ft 423 kts 311°
2026-04-29 15:16 40.91264 18.07747 37020 ft 423 kts 311°
2026-04-29 15:16 40.93278 18.04923 37328 ft 421 kts 311°
2026-04-29 15:16 40.95276 18.02112 37670 ft 418 kts 311°
2026-04-29 15:17 40.97263 17.99320 37995 ft 416 kts 311°
2026-04-29 15:17 41.01250 17.93701 38014 ft 420 kts 311°
2026-04-29 15:18 41.05225 17.88085 37995 ft 415 kts 311°
2026-04-29 15:18 41.09147 17.82531 38001 ft 411 kts 311°
2026-04-29 15:19 41.13043 17.77000 37998 ft 410 kts 310°
2026-04-29 15:19 41.16925 17.71478 38001 ft 409 kts 310°
2026-04-29 15:20 41.20803 17.65957 38002 ft 409 kts 310°
2026-04-29 15:20 41.24697 17.60430 37997 ft 410 kts 311°
2026-04-29 15:21 41.28601 17.54884 37999 ft 412 kts 310°
2026-04-29 15:21 41.32489 17.49344 37995 ft 413 kts 310°
2026-04-29 15:22 41.36431 17.43712 37995 ft 414 kts 310°
2026-04-29 15:22 41.40331 17.38127 37994 ft 415 kts 310°
2026-04-29 15:23 41.44260 17.32491 37997 ft 415 kts 310°
2026-04-29 15:23 41.48189 17.26843 37997 ft 415 kts 310°
2026-04-29 15:24 41.52113 17.21192 37997 ft 415 kts 310°
2026-04-29 15:24 41.56037 17.15530 37997 ft 415 kts 310°
2026-04-29 15:25 41.59953 17.09868 38002 ft 414 kts 310°
2026-04-29 15:25 41.63859 17.04210 38000 ft 414 kts 310°
2026-04-29 15:26 41.67760 16.98549 38004 ft 413 kts 310°
2026-04-29 15:26 41.71648 16.92895 38005 ft 413 kts 310°
2026-04-29 15:27 41.75534 16.87233 38003 ft 413 kts 310°
2026-04-29 15:27 41.79412 16.81571 38013 ft 412 kts 310°
2026-04-29 15:28 41.83291 16.75898 38001 ft 412 kts 310°
2026-04-29 15:28 41.87159 16.70230 38002 ft 412 kts 310°
2026-04-29 15:29 41.91027 16.64551 38000 ft 412 kts 310°
2026-04-29 15:30 41.98744 16.53187 38005 ft 412 kts 310°
2026-04-29 15:30 42.02596 16.47497 38003 ft 412 kts 310°
2026-04-29 15:31 42.06449 16.41794 38010 ft 412 kts 310°
2026-04-29 15:31 42.10295 16.36073 38000 ft 412 kts 309°
2026-04-29 15:32 42.14139 16.30350 38002 ft 412 kts 309°
2026-04-29 15:32 42.17982 16.24635 38002 ft 412 kts 309°
2026-04-29 15:33 42.21825 16.18906 37998 ft 412 kts 309°
2026-04-29 15:33 42.25639 16.13209 37999 ft 412 kts 309°
2026-04-29 15:34 42.29179 16.07170 38015 ft 409 kts 303°
2026-04-29 15:34 42.32415 16.00853 38003 ft 409 kts 302°
2026-04-29 15:35 42.35638 15.94512 37996 ft 409 kts 303°
2026-04-29 15:35 42.38877 15.88196 37998 ft 409 kts 303°
2026-04-29 15:36 42.42122 15.81884 38004 ft 408 kts 303°
2026-04-29 15:36 42.45367 15.75584 37997 ft 408 kts 303°
2026-04-29 15:37 42.48612 15.69277 37998 ft 408 kts 303°
2026-04-29 15:37 42.51853 15.62967 37997 ft 408 kts 303°
2026-04-29 15:38 42.55091 15.56649 38005 ft 408 kts 303°
2026-04-29 15:38 42.58325 15.50323 38013 ft 408 kts 302°
2026-04-29 15:39 42.61013 15.45056 38005 ft 409 kts 302°
2026-04-29 15:39 42.64244 15.38712 38005 ft 409 kts 302°
2026-04-29 15:40 42.68002 15.31317 38006 ft 409 kts 302°
2026-04-29 15:40 42.70704 15.25987 37997 ft 409 kts 302°
2026-04-29 15:41 42.73930 15.19613 38009 ft 409 kts 302°
2026-04-29 15:41 42.77152 15.13233 38008 ft 409 kts 302°
2026-04-29 15:42 42.80349 15.06889 38007 ft 409 kts 302°
2026-04-29 15:42 42.83582 15.00459 38009 ft 409 kts 302°
2026-04-29 15:43 42.86773 14.94099 38016 ft 409 kts 302°
2026-04-29 15:43 42.89984 14.87687 38006 ft 409 kts 302°
2026-04-29 15:44 42.93210 14.81229 38015 ft 409 kts 302°
2026-04-29 15:44 42.96387 14.74856 38013 ft 409 kts 302°
2026-04-29 15:45 42.99584 14.68430 38014 ft 409 kts 302°
2026-04-29 15:45 43.02773 14.62006 38016 ft 409 kts 302°
2026-04-29 15:46 43.05963 14.55565 38016 ft 409 kts 302°
2026-04-29 15:46 43.09145 14.49126 38017 ft 409 kts 302°
2026-04-29 15:47 43.12327 14.42673 38026 ft 409 kts 302°
2026-04-29 15:47 43.15502 14.36222 38015 ft 409 kts 302°
2026-04-29 15:48 43.18675 14.29758 38019 ft 409 kts 302°
2026-04-29 15:48 43.21844 14.23291 38019 ft 408 kts 301°
2026-04-29 15:49 43.25008 14.16818 38013 ft 408 kts 302°
2026-04-29 15:49 43.28165 14.10347 38023 ft 408 kts 302°
2026-04-29 15:50 43.31321 14.03862 38022 ft 408 kts 301°
2026-04-29 15:50 43.34472 13.97373 38022 ft 409 kts 301°
2026-04-29 15:51 43.37622 13.90873 38033 ft 409 kts 301°
2026-04-29 15:51 43.40771 13.84359 38016 ft 409 kts 301°
2026-04-29 15:52 43.43897 13.77880 38024 ft 409 kts 301°
2026-04-29 15:52 43.47040 13.71351 38024 ft 409 kts 301°
2026-04-29 15:53 43.50176 13.64821 38025 ft 409 kts 301°
2026-04-29 15:53 43.53311 13.58277 38027 ft 409 kts 301°
2026-04-29 15:54 43.56444 13.51727 38031 ft 410 kts 301°
2026-04-29 15:54 43.59566 13.45151 38048 ft 409 kts 301°
2026-04-29 15:55 43.62580 13.38502 38051 ft 409 kts 300°
2026-04-29 15:55 43.65574 13.31808 38056 ft 410 kts 300°
2026-04-29 15:56 43.68569 13.25120 38047 ft 409 kts 300°
2026-04-29 15:56 43.71565 13.18433 38040 ft 409 kts 300°
2026-04-29 15:57 43.74556 13.11750 38015 ft 409 kts 300°
2026-04-29 15:57 43.77521 13.05112 38041 ft 408 kts 300°
2026-04-29 15:58 43.80501 12.98424 38034 ft 408 kts 300°
2026-04-29 15:58 43.83475 12.91735 38039 ft 408 kts 300°
2026-04-29 15:59 43.86464 12.84994 38044 ft 408 kts 300°
2026-04-29 15:59 43.89433 12.78287 38045 ft 408 kts 300°
2026-04-29 16:00 43.92395 12.71576 38048 ft 408 kts 300°
2026-04-29 16:00 43.95339 12.64893 38049 ft 408 kts 300°
2026-04-29 16:01 43.98299 12.58157 38053 ft 409 kts 300°
2026-04-29 16:01 44.01252 12.51421 38055 ft 408 kts 300°
2026-04-29 16:02 44.04223 12.44631 38047 ft 409 kts 300°
2026-04-29 16:02 44.07150 12.37922 38075 ft 409 kts 300°
2026-04-29 16:03 44.10096 12.31154 38076 ft 409 kts 300°
2026-04-29 16:03 44.13039 12.24378 38082 ft 409 kts 300°
2026-04-29 16:04 44.15983 12.17583 38052 ft 410 kts 300°
2026-04-29 16:04 44.18923 12.10782 38048 ft 410 kts 300°
2026-04-29 16:05 44.21865 12.03961 38041 ft 410 kts 300°
2026-04-29 16:05 44.24802 11.97133 38047 ft 410 kts 300°
2026-04-29 16:06 44.27735 11.90300 38063 ft 411 kts 300°
2026-04-29 16:06 44.30665 11.83456 38127 ft 411 kts 300°
2026-04-29 16:07 44.33591 11.76606 38124 ft 411 kts 300°
2026-04-29 16:07 44.36518 11.69739 37965 ft 414 kts 300°
2026-04-29 16:07 44.37993 11.66268 37481 ft 415 kts 300°
2026-04-29 16:08 44.39461 11.62813 36921 ft 412 kts 300°
2026-04-29 16:08 44.40923 11.59369 36375 ft 411 kts 300°
2026-04-29 16:08 44.42379 11.55932 35820 ft 410 kts 300°
2026-04-29 16:08 44.43824 11.52520 35393 ft 405 kts 300°
2026-04-29 16:09 44.45253 11.49140 34962 ft 402 kts 300°
2026-04-29 16:09 44.46671 11.45783 34537 ft 399 kts 300°
2026-04-29 16:09 44.48073 11.42456 34095 ft 396 kts 300°
2026-04-29 16:09 44.49467 11.39148 33629 ft 393 kts 300°
2026-04-29 16:10 44.50850 11.35862 33182 ft 390 kts 300°
2026-04-29 16:10 44.52218 11.32609 32749 ft 386 kts 300°
2026-04-29 16:10 44.53564 11.29374 32344 ft 382 kts 298°
2026-04-29 16:10 44.54694 11.26022 31924 ft 379 kts 292°
2026-04-29 16:11 44.55679 11.22604 31648 ft 376 kts 292°
2026-04-29 16:11 44.56634 11.19210 31242 ft 374 kts 292°
2026-04-29 16:11 44.57591 11.15831 30858 ft 371 kts 292°
2026-04-29 16:11 44.58549 11.12487 30462 ft 369 kts 292°
2026-04-29 16:12 44.59513 11.09159 30043 ft 367 kts 292°
2026-04-29 16:12 44.60148 11.06972 29734 ft 365 kts 292°
2026-04-29 16:12 44.61411 11.02621 29184 ft 361 kts 292°
2026-04-29 16:12 44.62363 10.99333 28754 ft 358 kts 292°
2026-04-29 16:13 44.63280 10.96145 28344 ft 355 kts 292°
2026-04-29 16:13 44.64200 10.92939 27940 ft 353 kts 292°
2026-04-29 16:13 44.65112 10.89757 27541 ft 350 kts 292°
2026-04-29 16:13 44.66017 10.86599 27146 ft 348 kts 292°
2026-04-29 16:14 44.66917 10.83453 26751 ft 346 kts 292°
2026-04-29 16:14 44.67809 10.80330 26370 ft 344 kts 292°
2026-04-29 16:14 44.68696 10.77223 25981 ft 342 kts 292°
2026-04-29 16:14 44.69578 10.74128 25593 ft 340 kts 292°
2026-04-29 16:15 44.70457 10.71041 25202 ft 339 kts 292°
2026-04-29 16:15 44.71329 10.67972 24816 ft 338 kts 292°
2026-04-29 16:15 44.72199 10.64909 24410 ft 337 kts 292°
2026-04-29 16:15 44.73068 10.61846 24026 ft 336 kts 292°
2026-04-29 16:16 44.73933 10.58792 23595 ft 336 kts 292°
2026-04-29 16:16 44.74797 10.55737 23165 ft 335 kts 292°
2026-04-29 16:16 44.75656 10.52697 22761 ft 333 kts 292°
2026-04-29 16:16 44.76508 10.49681 22364 ft 331 kts 292°
2026-04-29 16:17 44.77355 10.46675 21984 ft 329 kts 292°
2026-04-29 16:17 44.78195 10.43692 21610 ft 327 kts 292°
2026-04-29 16:17 44.79031 10.40716 21229 ft 325 kts 292°
2026-04-29 16:17 44.79862 10.37762 20867 ft 324 kts 292°
2026-04-29 16:18 44.80686 10.34823 20483 ft 322 kts 292°
2026-04-29 16:18 44.81508 10.31891 20120 ft 321 kts 292°
2026-04-29 16:18 44.82328 10.28979 19682 ft 320 kts 294°
2026-04-29 16:18 44.83560 10.26399 19287 ft 320 kts 315°
2026-04-29 16:19 44.85255 10.24396 18955 ft 319 kts 322°
2026-04-29 16:19 44.87044 10.22549 18587 ft 318 kts 323°
2026-04-29 16:19 44.88851 10.20735 18205 ft 318 kts 323°
2026-04-29 16:19 44.90647 10.18929 17811 ft 317 kts 323°
2026-04-29 16:20 44.92436 10.17114 17445 ft 316 kts 323°
2026-04-29 16:20 44.94184 10.15325 17095 ft 313 kts 323°
2026-04-29 16:20 44.95961 10.13496 16734 ft 311 kts 322°
2026-04-29 16:20 44.97707 10.11691 16382 ft 310 kts 323°
2026-04-29 16:21 44.99437 10.09897 16037 ft 308 kts 322°
2026-04-29 16:21 45.01135 10.08133 15714 ft 306 kts 322°
2026-04-29 16:21 45.02868 10.06331 15364 ft 305 kts 323°
2026-04-29 16:21 45.04549 10.04581 15037 ft 303 kts 322°
2026-04-29 16:22 45.06260 10.02797 14695 ft 301 kts 322°
2026-04-29 16:22 45.07923 10.01063 14363 ft 300 kts 323°
2026-04-29 16:22 45.09626 9.99286 13997 ft 300 kts 322°
2026-04-29 16:22 45.11284 9.97556 13641 ft 300 kts 323°
2026-04-29 16:23 45.12985 9.95782 13262 ft 299 kts 322°
2026-04-29 16:23 45.14659 9.94037 12913 ft 298 kts 324°
2026-04-29 16:23 45.16367 9.92451 12565 ft 297 kts 327°
2026-04-29 16:23 45.18165 9.91018 12225 ft 296 kts 330°
2026-04-29 16:24 45.20008 9.89739 11910 ft 295 kts 333°
2026-04-29 16:24 45.21893 9.88590 11556 ft 294 kts 337°
2026-04-29 16:24 45.23805 9.87575 11227 ft 293 kts 339°
2026-04-29 16:24 45.25742 9.86689 10897 ft 292 kts 341°
2026-04-29 16:25 45.27683 9.85844 10582 ft 291 kts 341°
2026-04-29 16:25 45.28988 9.85276 10364 ft 291 kts 340°
2026-04-29 16:25 45.31516 9.84174 10155 ft 282 kts 341°
2026-04-29 16:25 45.33374 9.83359 9956 ft 278 kts 341°
2026-04-29 16:26 45.35221 9.82545 9635 ft 278 kts 341°
2026-04-29 16:26 45.37066 9.81731 9339 ft 277 kts 341°
2026-04-29 16:26 45.38308 9.81182 9143 ft 276 kts 342°
2026-04-29 16:26 45.40054 9.80119 8827 ft 272 kts 323°
2026-04-29 16:27 45.41533 9.78473 8567 ft 269 kts 320°
2026-04-29 16:27 45.42988 9.76796 8285 ft 269 kts 320°
2026-04-29 16:27 45.44440 9.75123 8009 ft 268 kts 320°
2026-04-29 16:27 45.45891 9.73456 7704 ft 268 kts 321°
2026-04-29 16:28 45.47345 9.71792 7421 ft 268 kts 321°
2026-04-29 16:28 45.48801 9.70131 7134 ft 268 kts 321°
2026-04-29 16:28 45.50258 9.68470 6836 ft 268 kts 321°
2026-04-29 16:28 45.51729 9.66794 6453 ft 272 kts 321°
2026-04-29 16:29 45.53202 9.65117 6221 ft 269 kts 321°
2026-04-29 16:29 45.54613 9.63512 6138 ft 257 kts 321°
2026-04-29 16:29 45.56002 9.61929 5760 ft 249 kts 321°
2026-04-29 16:29 45.57349 9.60396 5298 ft 245 kts 321°
2026-04-29 16:30 45.58669 9.58895 4852 ft 240 kts 321°
2026-04-29 16:30 45.59948 9.57436 4376 ft 237 kts 321°
2026-04-29 16:30 45.61212 9.55991 4059 ft 225 kts 322°
2026-04-29 16:30 45.62379 9.54660 4015 ft 207 kts 322°
2026-04-29 16:31 45.63495 9.53388 4031 ft 206 kts 322°
2026-04-29 16:31 45.64619 9.52107 4026 ft 209 kts 322°
2026-04-29 16:31 45.65754 9.50810 4029 ft 208 kts 322°
2026-04-29 16:31 45.66921 9.49584 4013 ft 208 kts 335°
2026-04-29 16:32 45.68306 9.49394 4024 ft 201 kts 19°
2026-04-29 16:32 45.69440 9.50501 3750 ft 204 kts 61°
2026-04-29 16:32 45.69756 9.52390 3574 ft 196 kts 89°
2026-04-29 16:32 45.69734 9.54339 3256 ft 195 kts 98°
2026-04-29 16:33 45.69165 9.57902 2691 ft 173 kts 105°
2026-04-29 16:33 45.68863 9.59521 2477 ft 161 kts 105°
2026-04-29 16:33 45.68581 9.61031 2187 ft 151 kts 104°
2026-04-29 16:34 45.68312 9.62470 1951 ft 147 kts 104°
2026-04-29 16:34 45.68053 9.63853 1735 ft 142 kts 104°
2026-04-29 16:34 45.67783 9.65256 1472 ft 150 kts 105°
2026-04-29 16:34 45.67513 9.66720 1175 ft 148 kts 102°
2026-04-29 16:35 45.67263 9.68102 966 ft 141 kts 103°
2026-04-29 16:35 45.67011 9.69464 799 ft 144 kts 104°
2026-04-29 16:35 45.66776 9.70730 786 ft 113 kts 104°
2026-04-29 16:35 45.66619 9.71570 786 ft 50 kts 106°
2026-04-29 16:36 45.66565 9.71868 786 ft 20 kts 112°
2026-04-29 16:36 45.66491 9.71889 786 ft 11 kts 239°
2026-04-29 16:36 45.66469 9.71784 786 ft 11 kts 253°
2026-04-29 16:36 45.66449 9.71682 786 ft 11 kts 256°
2026-04-29 16:37 45.66438 9.71581 786 ft 10 kts 272°
2026-04-29 16:37 45.66455 9.71466 786 ft 14 kts 285°
2026-04-29 16:37 45.66484 9.71313 786 ft 18 kts 285°
2026-04-29 16:37 45.66505 9.71208 786 ft 15 kts 288°
2026-04-29 16:38 45.66551 9.71028 786 ft 14 kts 286°
2026-04-29 16:38 45.66581 9.70867 786 ft 20 kts 287°
2026-04-29 16:38 45.66617 9.70673 786 ft 19 kts 285°
2026-04-29 16:38 45.66651 9.70492 786 ft 19 kts 284°
2026-04-29 16:39 45.66684 9.70315 786 ft 18 kts 285°
2026-04-29 16:39 45.66718 9.70131 786 ft 20 kts 285°
2026-04-29 16:39 45.66752 9.69945 786 ft 19 kts 284°
2026-04-29 16:39 45.66786 9.69766 786 ft 18 kts 283°
2026-04-29 16:40 45.66818 9.69592 786 ft 18 kts 287°
2026-04-29 16:40 45.66849 9.69426 786 ft 17 kts 284°
2026-04-29 16:40 45.66863 9.69341 786 ft 2 kts 275°
2026-04-29 16:40 45.66827 9.69300 786 ft 9 kts 181°
2026-04-29 16:41 45.66783 9.69285 786 ft 5 kts 195°
2026-04-29 16:41 45.66766 9.69279 786 ft 0 kts 195°